SCOUT X-4 R/B, 721

Orbit data source: Space-Track

SCOUT X-4 R/B, 721 is space debris in LEO originally from a launch on Thu, 19 Dec 1963 UTC launched from the Air Force Western Test Range (AFWTR). Debris objects in space refer to the collection of defunct objects orbiting the Earth. Examples of debris include non-operational satellites, rocket bodies, and fragments generated from explosions, collisions, or faulty payload assembly.

Loading next visibility...
Identifier
721, 1963-053B
Orbit
LEO
Country
Flag of USUS
Related business
Manufacturer
ABL
Mission
Spacecraft
Bus & Motor
ALTAIR, Unknown motor
Mass
68 kg wet, 33 kg dry
Launch date (UTC)
1963-12-19 (62 years ago)
Launch vehicle
Unknown
Launch site
Air Force Western Test Range (AFWTR)
Object type
Payload
Rocket body
Debris
Shape & HBR
Unknown
Radar Cross Section
Medium (>0.1 m² and <1 m²)

Expand to show TLE details & history
Last TLE update: 7 hours ago

TLE from 7 hours ago
0 SCOUT X-4 R/B
1 00721U 63053B   25350.94881011  .00000356  00000-0  20329-3 0  9997
2 00721  78.6020 290.6502 1087860  52.8219 316.7267 12.54998002827195
Epoch: 2025-12-16T22:46Z
TLE epoch observation values (Epoch: 2025-12-16T22:46:17.193Z)
Latitude
-0.00005°
Longitude
-136.74714°
Altitude
875.659 km
Speed
7.68 km/s
True Right ascension
19h 22m 36s
True Declination
0° 00' 00"
Sunlit
Object was in daylight at epoch
Visualization orbit readout
Latitude
Unknown
Longitude
Unknown
Altitude
Unknown
Speed
Unknown
Apparent Right ascension
Unknown
Apparent Declination
Unknown
Sunlit
N/A
Visualization observer readout
Local Sidereal Time
04:08:24
Azimuth
Unknown
Elevation
Unknown
Doppler factor
Unknown
Orbital elements
Apogee altitude
2,291.761 km
Perigee altitude
590.507 km
Semi-major axis
7,819.271 km
Eccentricity
0.10879
Inclination
78.602°
RAAN
290.6502°
Arg. of periapsis
52.8219°
True anomaly
307.29054°
Mean anomaly
316.7267°
Eccentric anomaly
312.10214°
Mean motion
3.13902 °/min
Orbital period
114.69 mins
BSTAR
0.00020329
Loading maneuver chart data...
Computing Atmospheric mass density...
Loading historical data...
Loading historical data...
Loading historical data...
Loading historical data...
Loading historical data...
Loading historical data...
Loading historical data...

Documentation

Showing up to 5 results
|